Preview of NWS' New Version of Forecast
This preview is not operational and should not be used for support decisions.

Terminal Aerodrome Forecast (TAF)

Issued by National Weather Service (NWS)

                            
000
FTUS46 KSEW 162320
TAFBLI
TAF
KBLI 162320Z 1700/1724 18008KT P6SM SCT060 SCT250
     FM171200 17007KT P6SM BKN030 OVC060
     FM172000 16008KT P6SM SCT030 BKN060=